Oak Ridge, TN

6:34 AM EDT on May 26, 2017 (GMT -0400)
Oak Ridge

Weather History for KOQT - November, 2012

Change the Weather History Date:

Thursday, November 8, 2012

  Actual Average (KTYS) Record (KTYS)
Temperature  
Mean Temperature 44 °F -  
Max Temperature 57 °F 60 °F 81 °F (1986)
Min Temperature 30 °F 39 °F 23 °F (1952)
Degree Days  
Heating Degree Days 22    
Moisture  
Dew Point 33 °F    
Average Humidity 79    
Maximum Humidity 96    
Minimum Humidity 39    
Precipitation  
Precipitation 0.00 in - - ()
Sea Level Pressure  
Sea Level Pressure 30.21 in    
Wind  
Wind Speed 0 mph (SE)    
Max Wind Speed 4 mph    
Max Gust Speed -    
Visibility 6 miles    
Events Fog    
Averages and records for this station are not official NWS values.
T = Trace of Precipitation, MM = Missing Value Source: NWS Daily Summary

Daily Weather History Graph

Daily Weather History Graph

Search for Another Location

Airport or City:

Trip Planner

Search our weather history database for the weather conditions in past years. The results will help you decide how hot, cold, wet, or windy it might be!

Date:

Astronomy

Nov. 08, 2012 Rise Set
Actual Time 7:06 AM EST 5:34 PM EST
Civil Twilight 6:39 AM EST 6:01 PM EST
Nautical Twilight 6:09 AM EST 6:31 PM EST
Astronomical Twilight 5:39 AM EST 7:01 PM EST
Moon 1:11 AM EST (11/8) 2:05 PM EST (11/8)
Length of Visible Light 11h 21m
Length of Day
10h 27m
Waning Crescent, 33% of the Moon is Illuminated
Nov 8
Waning Crescent
Nov 13
New
Nov 20
First Quarter
Nov 28
Full
Dec 6
Last Quarter

Hourly Weather History & Observations

Time (EST) Temp. Dew Point Humidity Pressure Visibility Wind Dir Wind Speed Gust Speed Precip Events Conditions
12:53 AM 37.0 °F 35.1 °F 93% 30.13 in 7.0 mi Calm Calm - N/A   Clear
1:53 AM 37.0 °F 34.0 °F 89% 30.15 in 6.0 mi Calm Calm - N/A   Clear
2:53 AM 35.1 °F 33.1 °F 92% 30.16 in 6.0 mi Calm Calm - N/A   Clear
3:12 AM 33.8 °F 32.0 °F 93% 30.13 in 1.8 mi Calm Calm - N/A   Clear
3:25 AM 35.6 °F 32.0 °F 87% 30.14 in 3.0 mi Calm Calm - N/A   Clear
3:53 AM 34.0 °F 30.9 °F 89% 30.17 in 5.0 mi Calm Calm - N/A   Clear
4:53 AM 33.1 °F 30.0 °F 89% 30.18 in 7.0 mi Calm Calm - N/A   Clear
5:53 AM 32.0 °F 30.0 °F 92% 30.20 in 7.0 mi Calm Calm - N/A   Clear
6:43 AM 30.2 °F 28.4 °F 93% 30.19 in 1.8 mi Calm Calm - N/A   Partly Cloudy
6:50 AM 30.2 °F 28.4 °F 93% 30.19 in 3.0 mi Calm Calm - N/A   Scattered Clouds
6:53 AM 30.9 °F 28.9 °F 92% 30.23 in 1.5 mi Calm Calm - N/A   Mostly Cloudy
7:01 AM 30.2 °F 28.4 °F 93% 30.20 in 0.2 mi Calm Calm - N/A Fog Light Freezing Fog
7:53 AM 32.0 °F 30.9 °F 96% 30.25 in 0.2 mi Calm Calm - N/A Fog Fog
8:53 AM 35.1 °F 34.0 °F 96% 30.27 in 0.2 mi Calm Calm - N/A Fog Fog
9:27 AM 37.4 °F 35.6 °F 93% 30.25 in 2.0 mi Calm Calm - N/A   Overcast
9:37 AM 39.2 °F 37.4 °F 93% 30.25 in 4.0 mi Calm Calm - N/A   Mostly Cloudy
9:48 AM 39.2 °F 37.4 °F 93% 30.25 in 6.0 mi Calm Calm - N/A   Scattered Clouds
9:53 AM 39.9 °F 37.9 °F 93% 30.27 in 7.0 mi Calm Calm - N/A   Partly Cloudy
10:53 AM 48.0 °F 37.9 °F 68% 30.27 in 10.0 mi Calm Calm - N/A   Clear
11:53 AM 53.1 °F 34.0 °F 48% 30.25 in 10.0 mi Calm Calm - N/A   Clear
12:53 PM 54.0 °F 35.1 °F 49% 30.22 in 10.0 mi ESE 3.5 mph - N/A   Clear
1:53 PM 57.0 °F 34.0 °F 42% 30.20 in 10.0 mi South 3.5 mph - N/A   Clear
2:53 PM 57.9 °F 33.1 °F 39% 30.19 in 10.0 mi Calm Calm - N/A   Clear
3:53 PM 57.9 °F 33.1 °F 39% 30.19 in 10.0 mi Calm Calm - N/A   Clear
4:53 PM 57.0 °F 33.1 °F 40% 30.20 in 10.0 mi Calm Calm - N/A   Clear
5:53 PM 51.1 °F 37.0 °F 59% 30.21 in 10.0 mi Calm Calm - N/A   Clear
6:53 PM 48.0 °F 37.0 °F 66% 30.23 in 10.0 mi Calm Calm - N/A   Clear
7:53 PM 44.1 °F 37.0 °F 76% 30.24 in 10.0 mi Calm Calm - N/A   Clear
8:53 PM 42.1 °F 35.1 °F 76% 30.24 in 10.0 mi Calm Calm - N/A   Clear
9:53 PM 39.9 °F 35.1 °F 83% 30.25 in 10.0 mi Calm Calm - N/A   Clear
10:53 PM 37.0 °F 33.1 °F 86% 30.24 in 10.0 mi Calm Calm - N/A   Clear
11:53 PM 36.0 °F 32.0 °F 86% 30.25 in 8.0 mi Calm Calm - N/A   Clear